Weather History for Salina, KS

Change the Weather History Date:

Wednesday, December 7, 2011

  Actual Average Record
Temperature  
Mean Temperature 29 °F 34 °F  
Max Temperature 44 °F 44 °F 68 °F (1933)
Min Temperature 14 °F 24 °F -4 °F (1908)
Degree Days  
Heating Degree Days 36 31  
Month to date heating degree days 251 210  
Since 1 July heating degree days 1175 1162  
Cooling Degree Days 0 0  
Month to date cooling degree days 0 0  
Year to date cooling degree days 2003 1647  
Moisture  
Dew Point 18 °F    
Average Humidity 64    
Maximum Humidity 88    
Minimum Humidity 40    
Precipitation  
Precipitation 0.00 in 0.04 in 1.36 in (1980)
Month to date precipitation 0.71 0.26  
Year to date precipitation 20.21 30.82  
Sea Level Pressure  
Sea Level Pressure 30.20 in    
Wind  
Wind Speed 7 mph (West)    
Max Wind Speed 10 mph    
Max Gust Speed -    
Visibility 10 miles    
Events      
T = Trace of Precipitation, MM = Missing Value Source: NWS Daily Summary

Daily Weather History Graph

Daily Weather History Graph

Search for Another Location

Airport:

Trip Planner

Search our weather history database for the weather conditions in past years. The results will help you decide how hot, cold, wet, or windy it might be!

Date:

Astronomy

Dec. 07, 2011 Rise Set
Actual Time 7:35 AM CST 5:08 PM CST
Civil Twilight 7:05 AM CST 5:38 PM CST
Nautical Twilight 6:32 AM CST 6:11 PM CST
Astronomical Twilight 6:00 AM CST 6:43 PM CST
Moon 3:09 PM CST (12/7) 4:52 AM CST (12/7)
Length of Visible Light 10h 32m
Length of Day
9h 33m
Waxing Gibbous, 92% of the Moon is Illuminated
Dec 7
Waxing Gibbous
Dec 10
Full
Dec 17
Last Quarter
Dec 24
New
Jan 1
First Quarter

Hourly Weather History & Observations

Time (CST) Temp. Windchill Dew Point Humidity Pressure Visibility Wind Dir Wind Speed Gust Speed Precip Events Conditions
12:53 AM 14.0 °F 5.1 °F 10.0 °F 84% 30.27 in 10.0 mi South 5.8 mph - N/A   Clear
1:53 AM 17.6 °F 9.3 °F 10.4 °F 73% 30.20 in 10.0 mi SSW 5.8 mph - N/A   Clear
2:53 AM 17.6 °F 7.3 °F 12.2 °F 79% 30.18 in 10.0 mi South 8.1 mph - N/A   Clear
3:53 AM 18.0 °F 6.9 °F 14.0 °F 84% 30.21 in 10.0 mi SSW 9.2 mph - N/A   Clear
4:53 AM 17.1 °F 10.0 °F 12.9 °F 84% 30.20 in 10.0 mi South 4.6 mph - N/A   Clear
5:53 AM 17.6 °F 12.3 °F 12.2 °F 79% 30.14 in 10.0 mi SW 3.5 mph - N/A   Clear
6:53 AM 19.0 °F 11.1 °F 14.0 °F 81% 30.18 in 10.0 mi SW 5.8 mph - N/A   Clear
7:53 AM 19.0 °F 8.2 °F 14.0 °F 81% 30.18 in 10.0 mi SW 9.2 mph - N/A   Clear
8:53 AM 21.9 °F 11.0 °F 14.0 °F 72% 30.19 in 10.0 mi WSW 10.4 mph - N/A   Clear
9:53 AM 26.1 °F 16.2 °F 16.0 °F 66% 30.22 in 10.0 mi West 10.4 mph - N/A   Clear
10:53 AM 30.9 °F 23.5 °F 17.1 °F 57% 30.22 in 10.0 mi West 8.1 mph - N/A   Clear
11:53 AM 37.0 °F 33.3 °F 19.9 °F 50% 30.19 in 10.0 mi SW 4.6 mph - N/A   Clear
12:53 PM 39.9 °F 33.9 °F 21.0 °F 47% 30.18 in 10.0 mi NW 9.2 mph - N/A   Clear
1:53 PM 42.1 °F 37.7 °F 21.0 °F 43% 30.16 in 10.0 mi WNW 6.9 mph - N/A   Clear
2:53 PM 44.1 °F 40.1 °F 21.9 °F 42% 30.16 in 10.0 mi WNW 6.9 mph - N/A   Clear
3:53 PM 43.0 °F 38.8 °F 23.0 °F 45% 30.17 in 10.0 mi WNW 6.9 mph - N/A   Clear
4:53 PM 37.9 °F 32.7 °F 25.0 °F 60% 30.18 in 10.0 mi NW 6.9 mph - N/A   Clear
5:53 PM 32.0 °F 26.4 °F 24.1 °F 73% 30.21 in 10.0 mi NW 5.8 mph - N/A   Clear
6:53 PM 28.9 °F 22.8 °F 23.0 °F 78% 30.22 in 10.0 mi WNW 5.8 mph - N/A   Clear
7:53 PM 28.0 °F 20.0 °F 21.9 °F 78% 30.23 in 10.0 mi WNW 8.1 mph - N/A   Clear
8:53 PM 27.0 °F 20.5 °F 21.9 °F 81% 30.24 in 10.0 mi WNW 5.8 mph - N/A   Clear
9:53 PM 26.1 °F 19.4 °F 23.0 °F 88% 30.23 in 10.0 mi NNW 5.8 mph - N/A   Clear
10:53 PM 26.1 °F 21.9 °F 23.0 °F 88% 30.22 in 10.0 mi North 3.5 mph - N/A   Clear
11:53 PM 26.1 °F 21.9 °F 23.0 °F 88% 30.24 in 10.0 mi SW 3.5 mph - N/A   Clear